Regional Weather Roundup
Issued by NWS

Home | Current Version | Previous Version | Text Only | Print | Product List | Glossary On
Versions: 1 2 3 4 5 6 7 8 9 10 11 12 13 14 15 16 17 18 19 20 21 22 23 24 25 26 27 28 29 30 31 32 33 34 35 36 37 38 39 40 41 42 43 44 45 46 47 48 49 50
000
ASUS43 KFSD 250310
RWRSD

WEATHER ROUNDUP FOR SOUTH DAKOTA
NATIONAL WEATHER SERVICE SIOUX FALLS SD
1000 PM CDT SUN SEP 24 2017

NOTE: "FAIR" INDICATES FEW OR NO CLOUDS BELOW 12,000 FEET WITH NO
SIGNIFICANT WEATHER AND/OR OBSTRUCTIONS TO VISIBILITY.


SDZ001>005-009-010-012>017-250400-
NORTHWEST AND NORTH CENTRAL SOUTH DAKOTA

CITY           SKY/WX    TMP DP  RH WIND       PRES   REMARKS
BUFFALO          N/A     44  42  93 NW9       30.07R
FAITH            N/A     46  46 100 NW8       30.11S
MOBRIDGE       CLOUDY    52  46  80 N10       30.06S
$$

SDZ012>016-024>037-041>051-057-063-072>074-250400-
SOUTHWEST AND SOUTH CENTRAL SOUTH DAKOTA

CITY           SKY/WX    TMP DP  RH WIND       PRES   REMARKS
RAPID CTY ARPT CLOUDY    46  43  87 N9        30.11R
PIERRE         CLOUDY    50  46  86 N16       30.05F
CUSTER         CLOUDY    39  37  92 E6        30.10R
ELLSWORTH AFB  CLOUDY    47  44  90 N7        30.11
PHILIP         CLOUDY    50  47  89 N7        30.10R
PINE RIDGE     CLOUDY    49  45  86 NE5       30.10R
SPEARFISH      MOCLDY    43  43 100 N5        30.13S FOG
WINNER         CLOUDY    54  49  83 N8        30.06S
$$

SDZ004>011-016>023-039-040-250400-
NORTHEAST SOUTH DAKOTA

CITY           SKY/WX    TMP DP  RH WIND       PRES   REMARKS
ABERDEEN       CLOUDY    52  49  89 N9        30.04R
WATERTOWN      CLOUDY    52  50  93 N15       30.00R
BROOKINGS      CLOUDY    54  52  93 NW13      30.01R
SISSETON         N/A     53  51  93 NW13      30.00R
$$

SDZ017-020-022-023-036>040-048>070-250400-
SOUTHEAST SOUTH DAKOTA

CITY           SKY/WX    TMP DP  RH WIND       PRES   REMARKS
SIOUX FALLS    CLOUDY    57  55  93 NW10      29.99R
HURON          CLOUDY    54  50  86 N12       30.03R
CHAMBERLAIN    CLOUDY    55  50  85 N14       30.05S
MITCHELL       CLOUDY    55  51  86 N8        30.02R
YANKTON        CLOUDY    56  52  86 NW12      30.00S
$$

ABBREVIATIONS USED IN REMARKS
   TC - TEMPERATURE IN CELSIUS
  WCI - WIND CHILL INDEX
   HX - HEAT INDEX
  VSB - VISIBILITY





USA.gov is the U.S. government's official web portal to all federal, state and local government web resources and services.